Regional Weather Roundup
Issued by NWS

Home | Current Version | Previous Version | Text Only | Print | Product List | Glossary On
Versions: 1 2 3 4 5 6 7 8 9 10 11 12 13 14 15 16 17 18 19 20 21 22 23 24 25 26 27 28 29 30 31 32 33 34 35 36 37 38 39 40 41 42 43 44 45 46 47 48 49 50
000
ASUS43 KDMX 241008
RWRIA

WEATHER ROUNDUP FOR IOWA
NATIONAL WEATHER SERVICE DES MOINES IA
500 AM CDT SUN JUL 24 2016

NOTE: "FAIR" INDICATES FEW OR NO CLOUDS BELOW 12,000 FEET WITH NO
SIGNIFICANT WEATHER AND/OR OBSTRUCTIONS TO VISIBILITY.

* - THESE STATIONS ARE NOT NWS STATIONS...THUS NOT UNDER NWS
QUALITY CONTROL.  THEY ALSO DO NOT REPORT WEATHER SUCH
AS PRECIPITATION OR FOG.

IAZ001>003-012>014-020>022-031>034-043>046-241100-
   NORTHWEST IOWA

CITY           SKY/WX    TMP DP  RH WIND       PRES   REMARKS
CARROLL *      MOCLDY    77  75  94 W5        29.83S
CHEROKEE *     CLEAR     75  73  93 N8        29.87R
DENISON *      MOCLDY    77  75  94 NW5       29.83S
LE MARS *      CLEAR     73  68  83 N8        29.89S
SHELDON *      CLEAR     70  70 100 N5        29.87S
SIOUX CITY     CLEAR     78  66  66 N16       29.87R HX  80
SPENCER        CLEAR     74  69  85 NW9       29.86R
STORM LAKE *   CLEAR     75  73  94 N13       29.87R
$$

IAZ055>058-069>071-079>083-090>094-241100-
   SOUTHWEST IOWA

CITY           SKY/WX    TMP DP  RH WIND       PRES   REMARKS
ATLANTIC *     CLEAR     73  72  94 CALM      29.84S
CLARINDA *       N/A     73  73 100 MISG      29.86R
COUNCIL BLFS *   N/A     75  73  94 W7        29.85R
CRESTON *      CLOUDY    77  73  88 SW5       29.87R
HARLAN  *      CLEAR     73  73 100 CALM      29.87S
LAMONI         PTCLDY    78  75  90 S8        29.85F HX  81
RED OAK *      CLEAR     73  73 100 CALM      29.84S
SHENANDOAH *   CLEAR     75  73  94 CALM      29.84S
$$

IAZ047>049-059>061-072>074-084-241100-
   CENTRAL IOWA

CITY           SKY/WX    TMP DP  RH WIND       PRES   REMARKS
AMES           PTCLDY    74  74 100 S3        29.82S FOG
ANKENY *         N/A    N/A N/A N/A MISG        N/A
BOONE *        PTCLDY    77  73  88 SW5       29.82S
CHARITON *       N/A    N/A N/A N/A MISG        N/A
DES MOINES     MOCLDY    81  75  82 SW7       29.82S HX  87
GRINNELL*      PTCLDY    77  74  88 S7        29.85S
KNOXVILLE *    MOCLDY    79  73  83 S8        29.82F HX  82
MARSHALLTOWN   CLEAR     78  75  90 SW8       29.82S HX  81
NEWTON *       CLEAR     77  77 100 S7        29.82F
PELLA *        CLEAR     79  73  84 S6        29.84F HX  82
PERRY *          N/A     74  73  97 S5        29.83S
$$

IAZ004>006-015-016-023>025-035-036-241100-
   NORTH CENTRAL IOWA

CITY           SKY/WX    TMP DP  RH WIND       PRES   REMARKS
ALGONA *       CLEAR     77  75  94 NW6       29.83S
ESTHERVILLE    CLEAR     73  70  90 NW10      29.84S
FORT DODGE *   MOCLDY    75  73  94 SW5       29.84R
MASON CITY     CLOUDY    78  75  90 W10       29.83S HX  81
FOREST CITY *  CLOUDY    77  77 100 SW3       29.82S
IOWA FALLS *     N/A     77  74  91 SW6       29.83F
$$

IAZ007>011-017>019-026>030-037>042-050>054-066-241100-
   NORTHEAST IOWA

CITY           SKY/WX    TMP DP  RH WIND       PRES   REMARKS
CEDAR RAPIDS   PTCLDY    79  79 100 S8        29.83F HX  84
CHARLES CITY * CLEAR     75  75 100 S5        29.81F
CLINTON *      CLOUDY    77  76  96 S8        29.87F
DECORAH *      PTCLDY    75  75 100 SW8       29.80F
DUBUQUE        CLOUDY    75  74  96 S10       29.85F FOG
MONTICELLO *   CLEAR     79  77  94 S7        29.84S HX  83
OELWEIN *      CLOUDY    75  75 100 SW5       29.84S
WATERLOO       CLEAR     77  74  90 S5        29.80S
$$

IAZ064-065-067-068-078-241100-
   EAST CENTRAL IOWA

CITY           SKY/WX    TMP DP  RH WIND       PRES   REMARKS
DAVENPORT      CLEAR     80  75  84 S14       29.87F HX  85
IOWA CITY      CLEAR     79  77  94 S7        29.86S HX  83
MT. PLEASANT * CLEAR     80  79  98 S7        29.87S HX  87
MUSCATINE *    CLEAR     79  75  89 S5        29.86S HX  82
QUAD CITIES    CLEAR     81  75  82 S12       29.85F HX  87
$$

IAZ062-063-075>077-085>089-095>099-241100-
   SOUTHEAST IOWA

CITY           SKY/WX    TMP DP  RH WIND       PRES   REMARKS
BURLINGTON     CLEAR     78  76  93 S8        29.88S HX  81
FAIRFIELD *    MOCLDY    79  77  94 S7        29.86S HX  83
KEOKUK *       CLEAR     79  75  89 S8        29.87S HX  82
CENTERVILLE *    N/A     77  73  88 CALM      29.88S
OTTUMWA        CLEAR     78  74  87 S8        29.85S HX  81
WASHINGTON *   CLOUDY    79  77  94 S9        29.87S HX  83
$$

ABBREVIATIONS USED IN REMARKS
   TC - TEMPERATURES IN CELSIUS
  WCI - WIND CHILL INDEX
   HX - HEAT INDEX
  VSB - VISIBILITY
$$




USA.gov is the U.S. government's official web portal to all federal, state and local government web resources and services.